Location: Passau
(48.5830°N, 13.4830°E)
Time: 03:10:25
(UTC+01:00)

NOAA 19 - Pass Details

Date: 02 December 2021
Orbit: 841 x 860 km, 99.2° (Epoch: 17 January)

Event Time Altitude Azimuth Distance (km) Brightness Sun altitude
Rises 16:38:17 0° 102° (ESE) 3,395 7.9 -4.5°
Reaches altitude 10° 16:41:58 10° 77° (ENE) 2,467 7.0 -5.0°
Maximum altitude 16:44:23 13° 50° (NE) 2,251 6.8 -5.4°
Drops below altitude 10° 16:46:49 10° 23° (NNE) 2,476 7.2 -5.7°
Sets 16:50:30 0° 358° (N) 3,420 8.1 -6.3°
